CZ-6A DEB

Satellite information

Favourite Embed

Satellite Type and Status

DEBRISIN ORBIT

Key statistics

Satellite CZ-6A DEB at a glance.

Uptime

913

Days in orbit

Revolutions

≈ 14.6

Per day

Orbit

SSO

Sun Synchronous Orbit

Inclination

98.9

Latest

Satellite identification and parameters

Extended collection of information and parameters for CZ-6A DEB.

Object identification

Identified? True

Debris? True

Object name: CZ-6A DEB

International designator: 2022-151AV

Object number (NORAD): 54302

Object ID (CCSDS): 54302

Country: PEOPLES REPUBLIC OF CHINA (PRC)

Current information (Y/N): Y

RCS size: SMALL

Orbital parameters

Period: 98.415 minutes

Inclination: 98.8758 deg

SMA: 7061.044 km

Apoapsis: 759.423 km

Periapsis: 606.394 km

RAAN: 212.1302 deg

Eccentricy: 0.0108361

Argument of periapsis: 4.2585 deg

Mean anomaly: 355.9511 deg

Mean motion: 14.63185632 rev/day

Mean motion (dot): 0.0000484 rev/day2

B* drag term: 0.00087438 1/REarth

Two-line elements (TLE)

Creation date: May 11, 2025, 10:21 p.m.

Reference frame: TEME

Reference center: EARTH

Epoch: May 11, 2025, 4:02 a.m. UTC

TLE line 0: 0 CZ-6A DEB

TLE line 1: 1 54302U 22151AV 25131.16862860 .00004840 00000-0 87438-3 0 9993

TLE line 2: 2 54302 98.8758 212.1302 0108361 4.2585 355.9511 14.63185632131783

Live tracking on map

Real-time ground track for satellite CZ-6A DEB.

In-orbit conjunctions

A list of the most updated potential collisions computed for object CZ-6A DEB.

Target Orbit TCA Probability of collision Miss distance Type
COSMOS 1190 LEO 2024-09-05 18:45:58 0.0001154372 728.0 (m) PAYLOAD
LIBERTAD 1 SSO 2024-06-06 06:01:47 0.0004161848 826.0 (m) PAYLOAD

Associated space launch

Chinese satellite reported for atmospheric/ocean/environmental/spatial parameter research purposes, details TBD.

CZ-6A DEB was lifted into orbit during the mission ‘Long March 6A | Yunhai 3’, on board a Long March 6A space rocket.

The launch took place on Nov. 11, 2022, 10:52 p.m. from Launch Complex 9A.

For more information about the launch, click the button.

Launch to space Long March 6A | Yunhai 3
Long March 6A | Yunhai 3

Agency: N/A

Status: Launch Successful

Launch date: Nov. 11, 2022, 10:52 p.m. UTC

Rocket: Long March 6A

Launch pad: Launch Complex 9A

Location: Taiyuan Satellite Launch Center, People's Republic of China

...

Latest news about this satellite

There are no fresh news available about this satellite. Check back as we update our databases every day.


Newsletter sign-up

Weekly statistics, charts and insights to help you stay on top of the space industry.